Columbia Owens, SC

9:01 AM EDT on August 23, 2017 (GMT -0400)
Columbia Owens Downtown

Weather History for KCUB - February, 2013

Change the Weather History Date:

Saturday, February 16, 2013

  Actual Average Record
Temperature  
Mean Temperature 41 °F 50 °F  
Max Temperature 46 °F 61 °F 73 °F (2001)
Min Temperature 35 °F 38 °F 28 °F (2007)
Degree Days  
Heating Degree Days 24 15  
Month to date heating degree days 249 267  
Since 1 July heating degree days 1439 1759  
Cooling Degree Days 0 0  
Month to date cooling degree days 0 0  
Year to date cooling degree days 24 1  
Moisture  
Dew Point 35 °F    
Average Humidity 84    
Maximum Humidity 92    
Minimum Humidity 64    
Precipitation  
Precipitation 0.31 in 0.15 in 0.84 in (2003)
Month to date precipitation 2.86 1.87  
Year to date precipitation 4.28 5.50  
Sea Level Pressure  
Sea Level Pressure 29.94 in    
Wind  
Wind Speed 4 mph (NW)    
Max Wind Speed 18 mph    
Max Gust Speed 30 mph    
Visibility 8 miles    
Events Rain    
T = Trace of Precipitation, MM = Missing Value Source: NWS Daily Summary

Daily Weather History Graph

Daily Weather History Graph

Search for Another Location

Airport or City:

Trip Planner

Search our weather history database for the weather conditions in past years. The results will help you decide how hot, cold, wet, or windy it might be!

Date:

Astronomy

Feb. 16, 2013 Rise Set
Actual Time 7:07 AM EST 6:09 PM EST
Civil Twilight 6:41 AM EST 6:34 PM EST
Nautical Twilight 6:12 AM EST 7:04 PM EST
Astronomical Twilight 5:43 AM EST 7:33 PM EST
Moon 10:39 AM EST (2/16) No Moon Set
Length of Visible Light 11h 52m
Length of Day
11h 01m
Waxing Crescent, 39% of the Moon is Illuminated
Feb 16
Waxing Crescent
Feb 17
First Quarter
Feb 25
Full
Mar 4
Last Quarter
Mar 11
New

Hourly Weather History & Observations

Time (EST) Temp. Windchill Dew Point Humidity Pressure Visibility Wind Dir Wind Speed Gust Speed Precip Events Conditions
12:53 AM 41.0 °F - 37.0 °F 86% 29.97 in 7.0 mi Calm Calm - N/A   Clear
1:53 AM 39.9 °F - 37.0 °F 89% 29.96 in 9.0 mi Calm Calm - N/A   Clear
2:53 AM 39.9 °F - 37.0 °F 89% 29.95 in 10.0 mi Calm Calm - N/A   Scattered Clouds
3:53 AM 41.0 °F - 37.0 °F 86% 29.93 in 10.0 mi Calm Calm - N/A   Overcast
4:53 AM 43.0 °F - 37.0 °F 80% 29.94 in 10.0 mi Calm Calm - N/A   Mostly Cloudy
5:53 AM 44.1 °F 42.5 °F 36.0 °F 73% 29.95 in 10.0 mi Variable 3.5 mph - N/A   Overcast
6:53 AM 44.1 °F - 35.1 °F 71% 29.94 in 10.0 mi Calm Calm - N/A   Overcast
7:53 AM 44.1 °F 42.5 °F 35.1 °F 71% 29.94 in 10.0 mi Variable 3.5 mph - N/A   Overcast
8:53 AM 44.1 °F 39.5 °F 35.1 °F 71% 29.95 in 10.0 mi NNE 8.1 mph - N/A   Overcast
9:26 AM 41.0 °F 37.1 °F 37.4 °F 87% 29.97 in 3.0 mi North 5.8 mph - 0.01 in Rain Light Rain
9:38 AM 39.2 °F 35.9 °F 37.4 °F 93% 29.97 in 2.0 mi Variable 4.6 mph - 0.04 in Rain Rain
9:45 AM 39.2 °F 35.9 °F 37.4 °F 93% 29.97 in 1.8 mi North 4.6 mph - 0.06 in Rain Rain
9:50 AM 39.2 °F 37.0 °F 37.4 °F 93% 29.98 in 2.0 mi Variable 3.5 mph - 0.07 in Rain Rain
9:53 AM 39.0 °F 36.8 °F 36.0 °F 89% 29.98 in 2.5 mi Variable 3.5 mph - 0.07 in Rain Rain
10:01 AM 39.2 °F - 37.4 °F 93% 29.98 in 5.0 mi Calm Calm - 0.01 in Rain Light Rain
10:08 AM 39.2 °F 34.2 °F 35.6 °F 87% 29.99 in 6.0 mi NNW 6.9 mph - 0.01 in Rain Light Rain
10:53 AM 37.9 °F - 35.1 °F 89% 30.00 in 6.0 mi Calm Calm - 0.05 in Rain Light Rain
11:35 AM 37.4 °F 32.8 °F 35.6 °F 93% 29.98 in 6.0 mi NW 5.8 mph - 0.03 in Rain Light Rain
11:53 AM 37.9 °F 35.5 °F 35.1 °F 89% 29.98 in 6.0 mi NNW 3.5 mph - 0.04 in Rain Light Rain
12:03 PM 37.4 °F 32.8 °F 35.6 °F 93% 29.97 in 4.0 mi Variable 5.8 mph - 0.01 in Rain Light Rain
12:53 PM 39.0 °F - 36.0 °F 89% 29.95 in 8.0 mi Calm Calm - 0.02 in Rain Light Rain
1:53 PM 39.0 °F - 36.0 °F 89% 29.90 in 10.0 mi Calm Calm - 0.00 in   Overcast
2:24 PM 39.2 °F 37.0 °F 35.6 °F 87% 29.90 in 10.0 mi WSW 3.5 mph - N/A   Overcast
2:43 PM 39.2 °F - 35.6 °F 87% 29.88 in 10.0 mi Calm Calm - N/A   Overcast
2:53 PM 39.9 °F 36.7 °F 36.0 °F 86% 29.88 in 10.0 mi West 4.6 mph - N/A   Overcast
3:07 PM 41.0 °F 39.0 °F 37.4 °F 87% 29.87 in 10.0 mi West 3.5 mph - N/A   Overcast
3:33 PM 42.8 °F 38.6 °F 37.4 °F 81% 29.87 in 10.0 mi West 6.9 mph - N/A   Overcast
3:53 PM 42.1 °F 40.2 °F 36.0 °F 79% 29.87 in 10.0 mi SW 3.5 mph - N/A   Mostly Cloudy
4:06 PM 42.8 °F - 35.6 °F 76% 29.86 in 10.0 mi Calm Calm - N/A   Mostly Cloudy
4:22 PM 42.8 °F - 35.6 °F 76% 29.86 in 10.0 mi Calm Calm - 0.00 in Rain Light Rain
4:42 PM 39.2 °F 33.0 °F 35.6 °F 87% 29.87 in 1.8 mi NW 9.2 mph - 0.04 in Rain Rain
4:53 PM 37.9 °F 35.5 °F 35.1 °F 89% 29.87 in 1.5 mi West 3.5 mph - 0.09 in Rain Heavy Rain
4:59 PM 39.2 °F - 35.6 °F 87% 29.87 in 2.0 mi Calm Calm - 0.00 in Rain Light Rain
5:04 PM 39.2 °F 35.9 °F 35.6 °F 87% 29.87 in 7.0 mi North 4.6 mph - 0.00 in Rain Light Rain
5:14 PM 39.2 °F - 35.6 °F 87% 29.87 in 10.0 mi Calm Calm - 0.00 in   Mostly Cloudy
5:53 PM 39.9 °F 32.1 °F 34.0 °F 79% 29.90 in 7.0 mi NW 13.8 mph 25.3 mph 0.01 in Rain Light Rain
6:04 PM 37.4 °F 30.8 °F 33.8 °F 87% 29.90 in 6.0 mi WNW 9.2 mph 21.9 mph 0.03 in Rain Light Rain
6:53 PM 36.0 °F 30.3 °F 32.0 °F 86% 29.95 in 10.0 mi North 6.9 mph 18.4 mph 0.03 in   Overcast
7:03 PM 35.6 °F 30.7 °F 32.0 °F 87% 29.95 in 10.0 mi Variable 5.8 mph 20.7 mph N/A   Mostly Cloudy
7:53 PM 35.1 °F 30.1 °F 30.9 °F 85% 29.98 in 10.0 mi NNW 5.8 mph - N/A   Partly Cloudy
8:26 PM 35.6 °F 29.2 °F 32.0 °F 87% 30.00 in 10.0 mi NW 8.1 mph - N/A   Mostly Cloudy
8:34 PM 35.6 °F 29.2 °F 30.2 °F 81% 30.00 in 10.0 mi NW 8.1 mph - N/A   Overcast
8:43 PM 35.6 °F 31.7 °F 30.2 °F 81% 30.00 in 10.0 mi NNW 4.6 mph 18.4 mph N/A   Overcast
8:53 PM 35.1 °F 28.6 °F 30.9 °F 85% 30.01 in 10.0 mi NW 8.1 mph - N/A   Overcast
9:53 PM 36.0 °F 32.1 °F 30.9 °F 82% 30.04 in 10.0 mi WNW 4.6 mph - N/A   Overcast
10:53 PM 36.0 °F 29.6 °F 24.1 °F 62% 30.05 in 10.0 mi NW 8.1 mph - N/A   Scattered Clouds
11:53 PM 35.1 °F 29.3 °F 21.0 °F 57% 30.06 in 10.0 mi NW 6.9 mph - N/A   Clear